KD9BEW Weather Reports


time (UTC)temp
C
wind
direction
speed
KPH
gust
KPH
rain 1hr
cm
rain 24hr
cm
rain mn
cm
humidity
%
barometer
mb
20260510174555 8 232 4.8 12.9 0.00 0.00 0.00 52 1019.8
20260510173055 8 319 4.8 9.7 0.00 0.00 0.00 51 1019.8
20260510171611 8 46 3.2 19.3 0.00 0.00 0.00 55 1019.8
20260510170056 8 277 4.8 19.3 0.00 0.00 0.00 53 1019.6
20260510164552 8 268 4.8 12.9 0.00 0.00 0.00 54 1019.7
20260510163054 7 317 3.2 12.9 0.00 0.00 0.00 59 1019.5
20260510161557 7 24 4.8 14.5 0.00 0.00 0.00 57 1019.3
20260510160116 8 24 6.4 14.5 0.00 0.00 0.00 56 1019.1
20260510154623 8 49 3.2 14.5 0.00 0.00 0.00 57 1018.9
20260510153104 7 294 4.8 14.5 0.00 0.00 0.00 57 1018.7
20260510151558 7 186 3.2 16.1 0.00 0.00 0.00 57 1018.4
20260510150128 7 301 3.2 16.1 0.00 0.00 0.00 56 1018.3
20260510144612 7 307 4.8 14.5 0.00 0.00 0.00 58 1018.3
20260510143104 7 15 3.2 11.3 0.00 0.00 0.00 62 1018.1
20260510141559 7 252 3.2 14.5 0.00 0.00 0.00 62 1018.1
20260510140059 6 278 1.6 12.9 0.00 0.00 0.00 66 1017.9
20260510134558 6 267 4.8 11.3 0.00 0.00 0.00 67 1017.9
20260510133057 6 24 1.6 9.7 0.00 0.00 0.00 68 1017.9
20260510131557 6 236 3.2 9.7 0.00 0.00 0.00 69 1017.8
20260510130058 5 293 3.2 8.0 0.00 0.00 0.00 71 1017.6
20260510124554 5 326 3.2 6.4 0.00 0.00 0.00 71 1017.4
20260510123059 5 33 3.2 9.7 0.00 0.00 0.00 71 1017.3
20260510121559 4 309 3.2 11.3 0.00 0.00 0.00 71 1017.2
20260510120057 4 280 1.6 6.4 0.00 0.00 0.00 71 1016.9
20260510114555 3 0 1.6 6.4 0.00 0.00 0.00 72 1016.6
20260510113056 3 225 1.6 8.0 0.00 0.00 0.00 73 1016.4
20260510111554 2 214 0.0 9.7 0.00 0.00 0.00 73 1016.2
20260510110054 2 260 0.0 4.8 0.00 0.00 0.00 72 1016.2
20260510104606 2 149 0.0 4.8 0.00 0.00 0.00 72 1015.9
20260510103052 2 190 0.0 4.8 0.00 0.00 0.00 70 1015.7
20260510101601 3 0 0.0 9.7 0.00 0.00 0.00 69 1015.4
20260510100056 3 0 0.0 4.8 0.00 0.00 0.00 68 1015.1
20260510094612 3 0 0.0 3.2 0.00 0.00 0.00 67 1015.0
20260510093054 3 217 0.0 3.2 0.00 0.00 0.00 65 1014.8
20260510091554 3 198 0.0 3.2 0.00 0.00 0.00 64 1014.8
20260510090110 3 175 0.0 3.2 0.00 0.00 0.00 65 1014.7
20260510084600 4 0 0.0 1.6 0.00 0.00 0.00 63 1014.5
20260510083115 5 0 0.0 1.6 0.00 0.00 0.00 59 1014.3
20260510081613 5 169 0.0 8.0 0.00 0.00 0.00 58 1014.2
20260510080056 5 225 0.0 1.6 0.00 0.00 0.00 57 1014.1
20260510074559 6 0 0.0 4.8 0.00 0.00 0.00 56 1014.0
20260510073055 6 248 3.2 11.3 0.00 0.00 0.00 55 1014.0
20260510071601 6 275 0.0 4.8 0.00 0.00 0.00 56 1013.9
20260510070053 6 250 1.6 8.0 0.00 0.00 0.00 56 1013.8
20260510064558 5 283 0.0 4.8 0.00 0.00 0.00 57 1013.8
20260510063056 5 198 3.2 12.9 0.00 0.00 0.00 59 1013.7
20260510061602 4 169 0.0 4.8 0.00 0.00 0.00 62 1013.7
20260510060058 3 161 1.6 6.4 0.00 0.00 0.00 64 1013.7
20260510054555 2 169 1.6 3.2 0.00 0.00 0.00 68 1013.7
20260510053059 2 169 1.6 4.8 0.00 0.00 0.00 67 1013.5
20260510051555 2 159 1.6 3.2 0.00 0.00 0.00 66 1013.3
20260510050058 3 156 0.0 3.2 0.00 0.00 0.00 63 1013.5
20260510044558 3 199 1.6 8.0 0.00 0.00 0.00 62 1013.5
20260510043110 3 195 0.0 3.2 0.00 0.00 0.00 63 1013.5
20260510041601 3 169 0.0 3.2 0.00 0.00 0.00 62 1013.3
20260510040106 3 0 0.0 1.6 0.00 0.00 0.00 60 1013.3
20260510034600 4 191 0.0 3.2 0.00 0.00 0.00 58 1013.2
20260510033057 5 175 0.0 1.6 0.00 0.00 0.00 58 1012.9
20260510031603 5 178 1.6 3.2 0.00 0.00 0.00 55 1012.9
20260510024556 6 0 0.0 0.0 0.00 0.00 0.00 52 1012.7
20260510023057 6 0 0.0 0.0 0.00 0.00 0.00 51 1012.5
20260510021558 6 0 0.0 1.6 0.00 0.00 0.00 50 1012.4
20260510020100 7 0 0.0 1.6 0.00 0.00 0.00 49 1012.1
20260510014600 7 0 0.0 8.0 0.00 0.00 0.00 49 1012.0
20260510013110 8 273 0.0 8.0 0.00 0.00 0.00 47 1011.7
20260510011554 8 0 0.0 9.7 0.00 0.00 0.00 45 1011.2
20260510010052 9 296 1.6 9.7 0.00 0.00 0.00 43 1010.8
20260510004557 10 17 1.6 11.3 0.00 0.00 0.00 42 1010.6
20260510003055 10 309 1.6 12.9 0.00 0.00 0.00 41 1010.4
20260510001555 10 349 0.0 4.8 0.00 0.00 0.00 41 1010.2
20260510000057 10 13 3.2 11.3 0.00 0.00 0.00 41 1009.9
20260509234552 11 17 3.2 12.9 0.00 0.00 0.00 39 1009.7
20260509233058 11 31 1.6 8.0 0.00 0.00 0.00 39 1009.6
20260509231600 11 32 3.2 16.1 0.00 0.00 0.00 38 1009.6
20260509230057 11 24 4.8 14.5 0.00 0.00 0.00 38 1009.4
20260509224552 11 317 3.2 11.3 0.00 0.00 0.00 37 1009.1
20260509223056 12 24 1.6 16.1 0.00 0.00 0.00 38 1009.0
20260509221555 12 15 3.2 12.9 0.00 0.00 0.00 35 1008.9
20260509220057 12 252 6.4 16.1 0.00 0.00 0.00 38 1008.8
20260509214555 12 336 4.8 22.5 0.00 0.00 0.00 36 1008.8
20260509213058 12 161 3.2 16.1 0.00 0.00 0.00 36 1008.7
20260509211557 11 108 1.6 12.9 0.00 0.00 0.00 38 1008.7
20260509210106 11 304 6.4 14.5 0.00 0.00 0.00 37 1008.7
20260509204600 11 288 4.8 19.3 0.00 0.00 0.00 38 1008.6
20260509203058 11 256 4.8 19.3 0.00 0.00 0.00 37 1008.6
20260509201555 11 336 4.8 17.7 0.00 0.00 0.00 40 1008.4
20260509200108 11 277 8.0 17.7 0.00 0.00 0.00 38 1008.2
20260509194555 11 268 6.4 17.7 0.00 0.00 0.00 37 1008.2
20260509193056 11 315 8.0 22.5 0.00 0.00 0.00 39 1008.0
20260509191554 11 302 6.4 16.1 0.00 0.00 0.00 42 1007.8
20260509190058 11 281 8.0 19.3 0.00 0.00 0.00 39 1007.8
20260509184645 11 56 4.8 19.3 0.00 0.00 0.00 41 1007.5
20260509183109 11 275 6.4 20.9 0.00 0.00 0.00 40 1007.4
20260509181558 11 313 6.4 20.9 0.00 0.00 0.00 41 1007.1
20260509180110 11 279 4.8 20.9 0.00 0.00 0.00 41 1006.8